This demonstration page uses our WeatherBlox Daily Observations layout. Learn more.

Left ArrowRight Arrow

47.50024, -111.30081

Hourly Observations for January 26, 2016

Temp ( °F °C ) Dew Point ( °F °C ) Humidity (%) Winds ( mph kmh ) Pressure ( in mb ) Visibility ( mi km ) Precip ( " mm )
12:53 am 00:53 Clear 27 -2.8 19 -7.2 72 72 SSW 14 22 30.22 1023 10 16 0.00 0.00
1:53 am 01:53 Clear 29 -1.7 20 -6.7 69 69 SSW 17 28 30.19 1023 10 16 0.00 0.00
2:53 am 02:53 Clear 30 -1.1 20 -6.7 66 66 SSW 16 26 30.19 1022 10 16 0.00 0.00
3:53 am 03:53 Clear 31 -0.6 21 -6.1 67 67 SW 17 28 30.18 1022 10 16 0.00 0.00
4:53 am 04:53 Clear 32 0 21 -6.1 64 64 SW 15 24 30.21 1023 10 16 0.00 0.00
5:53 am 05:53 Clear 32 0 22 -5.6 66 66 SSW 16 26 30.20 1023 10 16 0.00 0.00
6:53 am 06:53 Clear 32 0 22 -5.6 66 66 SSW 16 26 30.21 1023 10 16 0.00 0.00
7:53 am 07:53 Clear 34 1.1 22 -5.6 61 61 SW 22 35 30.22 1023 10 16 0.00 0.00
8:53 am 08:53 Sunny 35 1.7 23 -5 61 61 SSW 20 31 30.22 1024 10 16 0.00 0.00
9:53 am 09:53 Sunny 39 3.9 23 -5 53 53 SW 25 41 30.23 1024 10 16 0.00 0.00
10:53 am 10:53 Sunny 42 5.6 24 -4.4 49 49 SW 28 44 30.22 1023 10 16 0.00 0.00
11:53 am 11:53 Sunny 43 6.1 25 -3.9 49 49 SSW 26 43 30.22 1023 10 16 0.00 0.00
12:53 pm 12:53 Sunny 45 7.2 25 -3.9 46 46 SW 28 44 30.20 1023 10 16 0.00 0.00
1:53 pm 13:53 Sunny 45 7.2 27 -2.8 49 49 SW 26 43 30.18 1022 10 16 0.00 0.00
2:53 pm 14:53 Sunny 46 7.8 27 -2.8 47 47 SW 26 43 30.15 1021 10 16 0.00 0.00
3:53 pm 15:53 Sunny 46 7.8 27 -2.8 47 47 SW 26 43 30.14 1021 10 16 0.00 0.00
4:53 pm 16:53 Sunny 42 5.6 27 -2.8 55 55 SW 23 37 30.16 1021 10 16 0.00 0.00
5:53 pm 17:53 Clear 41 5 26 -3.3 55 55 SSW 22 35 30.16 1021 10 16 0.00 0.00
6:53 pm 18:53 Clear 41 5 25 -3.9 53 53 SSW 24 39 30.15 1021 10 16 0.00 0.00
7:53 pm 19:53 Clear 42 5.6 25 -3.9 51 51 SSW 28 44 30.14 1021 10 16 0.00 0.00
8:53 pm 20:53 Clear 43 6.1 26 -3.3 51 51 SW 32 52 30.11 1020 10 16 0.00 0.00
9:53 pm 21:53 Clear 44 6.7 26 -3.3 49 49 SW 31 50 30.08 1019 10 16 0.00 0.00
10:53 pm 22:53 Clear 43 6.1 27 -2.8 53 53 SW 32 52 30.07 1018 10 16 0.00 0.00
11:53 pm 23:53 Clear 43 6.1 28 -2.2 56 56 SW 30 48 30.10 1019 10 16 0.00 0.00

Powered by AerisWeather